EHI
2 8 17 20 18 16 13 9 8 9 10 7 3 2 2 1 1 0 0 0 1 2 1 0 0 0 1 2 2 2 2 2 2 1 0 0 0 0 0 0 0 0 0
2 8 15 19 19 17 13 10 8 8 8 6 3 1 1 1 1 0 0 1 2 2 1 0 0 0 1 3 3 3 3 2 1 0 0 0 0 0 0 0 0 0 0
2 6 12 17 19 18 14 10 8 7 7 6 2 0 0 1 1 0 0 1 1 1 0 0 0 0 1 2 3 3 2 1 0 0 0 0 0 0 0 0 0 0 0
1 4 9 16 20 18 14 11 8 7 7 5 2 0 0 0 0 0 0 0 0 0 0 0 0 0 0 1 1 1 1 0 0 0 0 0 0 0 0 0 0 0 0
0 2 9 16 19 18 15 11 8 7 6 4 2 1 0 0 0 0 0 0 0 0 0 0 0 0 0 0 0 0 0 0 0 0 0 0 0 0 0 0 0 0 0
0 2 9 15 17 17 14 11 8 6 6 5 4 2 1 1 0 0 0 0 0 0 0 0 0 0 0 0 0 0 0 1 1 0 0 0 0 0 0 0 0 0 0
0 3 8 14 16 16 14 12 10 8 8 7 6 4 3 2 1 1 0 0 0 0 0 0 0 0 0 0 0 0 0 1 1 0 0 0 0 1 1 1 0 0 0
1 3 8 13 15 15 15 13 12 11 10 9 8 6 5 3 2 2 1 0 0 0 0 0 1 1 0 0 0 0 0 1 1 0 0 0 0 1 1 1 0 0 0
1 3 6 9 11 12 13 13 13 11 10 9 8 6 4 3 2 1 1 0 0 0 0 0 1 1 0 0 0 0 0 0 0 0 0 0 0 0 0 0 0 0 0
0 1 3 5 6 6 8 10 10 9 9 8 7 6 4 2 1 0 0 0 0 0 0 0 1 1 0 0 0 0 0 0 0 0 0 0 0 0 0 0 0 0 0
1 0 1 2 2 3 3 5 6 6 7 7 6 6 4 1 0 0 0 0 0 0 0 0 0 1 0 0 0 0 0 0 0 0 0 0 0 0 0 0 0 0 0
1 0 0 0 2 3 2 2 2 3 4 5 5 5 3 1 0 0 0 0 0 0 0 0 0 0 0 0 0 0 0 0 0 0 0 0 0 0 0 0 0 0 0
1 0 0 1 2 3 3 2 1 1 2 3 4 4 2 1 0 0 0 0 0 0 0 0 0 0 0 0 0 0 0 0 0 0 0 0 0 0 0 0 0 0 1
1 1 1 1 3 5 4 3 3 2 2 3 3 3 2 1 0 0 0 1 1 0 0 0 0 0 0 0 0 0 0 0 0 0 1 0 0 0 0 0 0 1 2
4 4 3 3 5 5 4 3 3 3 3 3 2 1 1 0 1 2 2 2 2 1 0 0 0 0 0 0 0 0 0 0 0 0 0 0 0 0 0 0 0 0 1
6 6 5 5 7 8 6 4 3 4 5 4 3 1 1 1 1 3 4 3 2 1 0 0 0 0 1 0 0 0 0 0 0 0 0 0 0 0 0 0 0 0 0
7 7 7 7 9 11 9 6 4 4 5 5 4 3 2 1 1 2 3 3 2 1 0 0 0 0 0 0 0 0 0 0 0 0 0 0 0 0 0 1 1 1 1
9 9 9 8 10 12 11 8 5 5 4 4 4 3 2 1 1 1 1 1 2 3 2 0 0 0 0 0 0 0 0 0 0 0 0 0 0 0 0 1 2 2 2
12 12 11 10 9 11 10 7 5 4 3 3 3 3 2 1 1 1 0 0 2 3 3 1 0 0 0 0 0 0 0 0 0 0 0 0 0 0 0 1 3 4 4
14 15 15 13 11 11 10 8 5 4 4 4 3 3 3 3 3 2 1 0 1 2 2 2 1 0 0 0 0 1 1 0 0 0 1 0 0 0 0 2 4 5 5
14 15 17 17 15 15 14 12 9 6 6 6 5 4 3 4 5 4 2 0 2 3 3 2 2 1 1 1 1 2 2 1 0 0 1 1 1 1 2 3 6 6 5
14 15 16 18 18 17 17 16 13 10 9 9 9 8 7 7 8 8 5 2 3 5 5 2 2 2 1 0 1 2 2 1 1 1 2 3 3 5 5 4 5 6 6
12 12 13 15 16 16 18 18 17 15 12 12 13 12 12 12 12 11 9 6 5 5 5 3 2 2 1 0 1 1 2 1 1 1 3 5 6 7 7 5 5 6 6
8 9 11 13 15 18 20 21 20 18 16 15 16 15 15 15 14 13 12 11 8 6 5 4 3 2 1 1 2 3 3 3 3 2 3 5 7 7 7 5 6 8 9
7 9 12 15 19 22 23 22 21 19 18 17 17 16 15 14 14 12 12 13 12 9 6 6 5 3 3 4 6 7 6 5 6 5 5 6 7 8 7 7 8 10 11
9 10 13 17 22 25 24 22 20 19 17 17 19 17 14 12 12 11 12 14 13 11 9 8 7 5 5 7 10 9 6 6 7 8 7 7 7 8 8 9 9 10 11
Wind_Speed
4 6 10 7 6 6 6 6 6 6 7 8 9 9 10 10 9 9 9 9 10 10 11 10 10 10 9 9 9 9 8 8 8 8 8 8 7 7 7 7 7 6 7
4 7 11 7 7 6 6 6 6 6 7 7 7 8 8 9 9 9 9 9 10 10 10 10 10 9 9 9 8 8 7 8 8 8 8 8 7 6 7 5 2 4 6
5 7 10 8 7 6 6 6 6 6 6 6 6 7 7 8 9 9 9 9 10 10 11 10 9 9 8 8 7 7 7 7 7 7 7 6 7 7 6 5 4 5 5
5 7 8 9 7 6 6 6 6 6 6 6 6 6 7 8 9 9 9 10 9 10 10 10 8 8 8 7 7 7 7 7 7 7 5 4 5 8 6 5 5 5 5
6 6 10 8 7 6 6 6 6 6 6 6 6 6 7 8 9 9 9 10 9 9 9 9 8 7 7 7 7 6 7 6 6 7 3 3 4 8 6 5 5 4 5
6 6 10 8 7 6 5 6 5 5 6 6 6 6 8 9 9 9 9 9 9 8 8 8 8 7 7 7 6 6 6 6 7 5 3 3 3 7 5 4 4 4 4
6 7 10 9 7 6 5 5 5 6 6 6 7 7 8 8 9 8 8 8 8 8 8 8 8 7 6 6 6 6 6 5 4 3 3 3 4 6 5 4 4 4 4
6 7 9 10 8 6 6 5 5 6 6 6 7 7 7 8 8 8 8 8 8 8 8 8 7 7 6 6 6 5 5 5 4 3 3 3 5 4 4 4 4 4 4
6 6 6 7 8 8 6 5 4 5 5 6 6 7 7 7 7 7 7 7 7 7 7 7 7 7 7 6 6 6 5 4 3 2 3 3 5 5 4 5 5 5 5
5 5 5 6 5 5 6 6 4 4 5 5 6 6 6 7 7 7 7 7 7 7 6 7 7 7 7 6 6 6 5 6 4 3 2 4 6 5 4 4 4 5 5
5 4 4 5 4 4 4 5 5 5 6 7 6 6 5 4 6 6 6 6 6 6 6 6 7 6 7 8 7 6 6 4 3 2 1 5 4 4 4 4 4 5 5
4 4 3 4 3 3 3 3 2 3 5 4 3 3 3 2 2 3 7 6 5 6 6 6 6 7 7 5 7 8 4 4 3 3 3 4 3 4 4 4 4 5 6
4 4 4 4 2 2 2 2 2 2 3 4 4 3 2 2 2 3 3 5 5 6 4 6 6 3 3 2 2 3 3 3 2 2 3 6 4 5 5 5 5 6 6
4 4 4 4 4 2 1 2 2 2 2 2 3 2 2 1 1 1 1 2 3 2 2 2 2 2 2 2 3 3 3 2 2 1 3 6 5 5 6 5 6 6 6
4 4 4 3 3 3 2 1 2 2 2 3 2 2 1 2 2 1 1 1 1 2 3 2 2 2 2 3 2 3 2 3 3 2 2 6 6 6 5 6 6 6 6
4 5 4 4 4 3 3 2 1 2 2 2 2 2 2 2 1 2 2 1 1 1 1 1 2 2 2 2 3 3 3 3 2 2 2 4 7 6 6 6 6 7 7
4 5 5 4 4 4 3 2 2 2 2 2 2 3 3 2 2 2 2 2 1 1 2 2 2 2 2 3 3 3 3 3 2 3 3 2 4 7 7 6 5 5 6
4 4 4 4 4 4 3 2 1 1 1 1 1 2 3 3 3 2 2 2 2 2 2 2 2 2 1 2 2 2 2 3 3 3 3 3 2 2 6 6 5 5 5
4 4 4 4 4 4 4 3 2 1 1 0 1 1 2 3 3 3 2 1 2 2 2 2 1 2 2 2 2 2 2 2 2 3 3 3 3 3 2 5 7 6 5
5 5 4 5 4 4 4 3 2 1 1 1 1 1 2 2 2 2 2 2 2 2 1 1 2 2 2 2 3 1 1 2 2 2 3 3 3 4 3 3 4 6 7
6 5 5 5 5 4 3 3 3 2 2 2 2 2 2 2 2 2 2 2 2 1 1 2 2 3 2 2 2 2 2 3 2 2 3 2 3 3 3 3 3 2 4
6 6 6 6 5 5 3 2 2 2 2 1 1 1 2 2 2 3 2 2 2 1 1 2 2 2 2 1 2 2 2 3 3 3 2 3 2 2 3 3 2 2 2
7 6 5 5 5 5 5 4 3 3 3 2 2 2 2 2 2 2 2 2 2 2 2 2 2 3 2 1 1 3 2 1 0 2 2 2 2 2 2 2 2 2 2
7 6 6 5 5 4 5 4 4 3 3 2 2 1 2 2 2 2 2 2 2 2 2 3 2 2 3 2 1 1 2 3 3 1 2 2 2 2 2 2 1 2 2
7 6 6 6 5 5 5 5 5 4 3 2 2 2 2 2 3 3 3 2 2 2 2 3 2 3 2 2 2 1 2 2 3 3 2 1 1 2 2 2 1 1 1
7 6 6 6 5 5 5 5 5 4 4 3 3 2 3 2 2 3 3 3 3 3 3 3 3 2 2 3 2 2 2 2 2 3 3 2 2 1 1 0 1 1 1
Wind_Direction
124 124 127 142 143 137 136 133 132 128 130 137 144 148 150 151 152 151 151 150 151 152 152 151 149 147 147 148 146 143 141 143 144 148 151 152 150 151 155 161 178 163 138
118 124 132 144 140 137 135 132 129 129 133 136 141 148 153 155 155 154 152 151 153 153 152 153 152 153 153 151 144 143 144 145 150 156 160 160 156 158 162 171 190 109 140
119 127 139 136 134 130 132 134 133 131 131 134 138 146 152 154 156 157 154 152 152 153 153 153 153 153 152 151 147 147 150 151 154 161 180 175 154 159 163 165 149 139 145
123 133 130 129 135 133 136 137 136 134 132 130 134 142 151 155 155 156 154 149 146 147 149 149 152 152 152 151 150 153 158 160 164 181 193 173 160 151 166 169 167 167 165
123 128 119 128 134 137 138 137 139 136 132 128 125 132 144 149 150 150 150 149 147 147 149 149 152 152 150 150 151 154 159 164 178 205 181 171 150 139 160 169 173 171 172
116 119 116 126 130 133 132 133 135 135 130 127 124 124 136 142 144 147 147 150 151 151 149 149 147 146 145 144 147 149 154 167 197 185 172 172 133 132 152 166 175 174 180
112 115 118 124 131 130 127 129 132 132 130 128 126 126 129 135 142 146 149 149 151 151 150 148 146 145 144 141 141 142 147 180 215 164 163 153 116 133 159 175 180 179 186
110 114 120 130 134 132 131 135 139 137 135 136 137 135 132 132 136 142 145 148 150 152 152 151 149 147 145 139 138 140 154 212 195 170 170 150 123 151 175 185 188 190 196
111 116 125 138 142 142 137 131 129 133 134 137 137 135 136 138 138 140 144 147 150 154 157 157 157 154 149 149 150 155 174 223 239 179 171 144 137 168 189 193 195 198 204
117 123 130 132 132 143 135 128 128 136 144 140 137 136 146 154 153 155 159 150 154 156 159 161 162 160 160 161 164 173 190 219 218 194 177 131 147 179 204 208 206 208 205
119 125 135 130 135 137 132 132 156 151 151 155 149 156 179 174 160 163 140 142 155 156 157 161 166 172 180 175 177 188 204 214 195 196 164 111 150 186 215 221 213 214 209
131 133 134 126 132 136 131 129 153 134 131 141 134 156 169 155 160 155 133 151 154 154 160 163 173 189 208 188 177 194 208 210 207 193 141 140 182 208 220 222 220 222 225
136 136 134 128 134 136 130 136 126 112 120 139 144 160 154 171 162 168 157 161 167 175 174 164 182 194 188 190 201 192 203 223 214 203 146 157 197 219 227 228 233 233 235
138 139 133 134 135 137 140 134 146 133 133 134 138 171 146 140 155 146 157 153 163 157 153 170 163 166 184 198 210 207 206 225 213 206 142 163 199 221 234 236 238 240 238
149 148 140 147 137 143 151 172 136 133 132 131 142 146 153 160 155 139 138 166 176 142 158 166 163 168 185 185 200 198 218 229 230 225 159 172 199 219 233 246 248 246 240
155 147 151 158 146 150 159 159 150 151 151 155 148 143 179 178 151 167 169 177 176 163 136 166 172 193 197 186 199 196 224 230 223 231 224 184 196 212 231 248 254 250 240
151 147 156 162 156 159 167 173 168 173 163 165 149 164 191 188 174 192 187 191 186 190 183 192 197 208 204 200 199 203 211 222 229 234 238 232 198 198 217 236 253 254 244
156 151 161 166 159 160 165 177 181 170 171 171 168 162 181 191 195 217 208 191 196 200 193 189 205 217 214 222 210 219 207 201 221 228 226 225 240 223 196 206 236 248 244
165 160 165 169 164 163 164 171 186 175 197 202 176 169 168 186 199 222 231 204 215 205 206 226 176 231 215 237 227 214 223 221 218 225 221 226 226 249 242 184 207 223 231
169 168 169 170 169 171 172 173 180 182 186 187 184 171 178 187 197 227 214 207 224 206 214 215 215 219 240 247 259 237 235 217 221 223 236 222 222 237 243 239 208 198 203
173 175 180 181 170 180 181 188 185 186 196 189 190 181 194 204 201 225 239 193 227 209 232 226 227 203 218 231 243 228 213 212 210 220 237 249 227 231 245 247 246 236 182
174 180 184 186 182 188 179 189 195 210 206 190 195 177 209 208 217 210 218 223 220 204 203 231 236 250 218 210 253 251 225 184 200 214 215 221 246 239 233 224 217 220 254
181 181 182 186 188 192 188 190 189 193 211 198 193 198 211 216 218 231 216 242 233 233 203 221 226 232 241 228 268 286 291 313 287 182 209 220 242 260 260 231 204 204 215
183 178 180 182 186 189 196 201 203 211 217 213 219 206 205 212 219 217 218 229 240 242 228 234 215 238 249 253 217 248 293 323 297 284 202 189 205 243 273 276 226 202 214
182 178 172 174 181 188 199 198 210 220 224 214 205 192 227 207 216 222 221 229 239 249 250 261 242 257 249 260 263 248 244 241 261 281 291 288 232 225 229 233 236 244 208
177 176 170 171 181 190 201 204 215 222 229 227 218 212 216 211 210 218 227 233 238 248 243 243 247 237 261 276 280 269 263 266 271 270 273 269 279 278 248 204 246 237 234